Simultaneous Nadir Overpasses (SNOs) Predictions

Prediction of SNOs between GOES-16 and NOAA-20 Satellite Orbit:

Table of predicted SNOs for the next 14.0 days since TLE Epoch: 12/18/2021
Index Date Time (GOES-16) GOES-16 Lat,Lon NOAA-20 Lat,Lon Distance(km) Time Diff (sec)
1 12/19/2021 18:25:58 0.01, -75.19 -0.12, -75.66 53.42 80
2 12/20/2021 18:09:53 0.00, -75.19 0.90, -71.12 463.32 80
3 12/22/2021 06:31:39 -0.00, -75.18 0.27, -76.38 136.89 80
4 12/23/2021 06:10:14 -0.00, -75.18 -0.75, -71.85 379.97 80
5 12/24/2021 18:32:09 0.01, -75.18 -0.41, -77.15 223.63 80
6 12/25/2021 18:16:02 0.00, -75.19 0.55, -72.60 293.75 80
7 12/27/2021 06:37:50 -0.01, -75.19 0.56, -77.88 305.13 80
8 12/28/2021 06:16:23 -0.00, -75.20 -0.40, -73.33 212.43 80
9 12/29/2021 18:38:19 0.00, -75.20 -0.75, -78.63 390.44 80
10 12/30/2021 18:22:13 -0.00, -75.21 0.27, -74.10 127.39 80
